[[{"header":{"parameterUnit":"m.s-1","parameterCategory":2,"la1":30.2991,"la2":30.254,"lo1":-89.0895,"lo2":-89.0444,"dx":0.0017,"dy":0.0017,"nx":28,"ny":28,"refTime":"2022-12-09T15:00:00:Z","depth":"0","parameterNumber":2,"parameterNumberName":"U-component_of_CURRENTS"},"data":[0,0,0,0,0,0,0,0,0,0,0,0,0,0,0,0,0,0,0,0,0,0,0,0,0,0,0,0,0,0,0,0,0,0,0,0,0,0,0,0,0,0,0,0,0,0,0,0,0,0,0,0,0,0,0,0,0,0,0.3038,0.304,0,0.3161,0.3162,0.3163,0.318,0.3179,0.3179,0.3178,0.3251,0.3254,0.3257,0,0,0,0,0,0,0,0,0,0,0,0,0,0.2867,0.2869,0.3038,0.304,0.3041,0.3161,0.3162,0.3163,0.3181,0.3179,0.3178,0.3177,0.325,0.3254,0.3257,0,0,0,0,0,0,0,0,0,0,0,0,0,0.2958,0.287,0.3038,0.3066,0.307,0.316,0.3162,0.3164,0.3181,0.3179,0.3178,0.3177,0.3249,0.3253,0.3257,0.3312,0,0,0.327,0.3272,0,0,0,0,0,0,0,0,0.2953,0.2964,0.306,0.3064,0.3069,0.3156,0.3129,0.3212,0.3181,0.3136,0.3178,0.3176,0.3217,0.3224,0.3248,0.3315,0.3319,0.3271,0.3273,0.3275,0.3276,0,0,0,0,0,0,0,0.2947,0.2959,0.3084,0.3062,0.3067,0.3089,0.31,0.3145,0.3181,0.314,0.3142,0.316,0.3219,0.3244,0.325,0.332,0.3271,0.3274,0.3277,0.3279,0.3451,0.3453,0,0,0,0,0,0,0.2936,0.2954,0.308,0.3088,0.3009,0.3093,0.3105,0.3127,0.3181,0.3189,0.3161,0.316,0.3237,0.3245,0.3252,0.3333,0.3275,0.3279,0.3282,0.3449,0.3451,0.3453,0,0,0,0,0,0,0.2931,0.2946,0.3076,0.3025,0.3043,0.3098,0.3123,0.3131,0.3158,0.3198,0.3204,0.318,0.3236,0.3246,0.3311,0.3335,0.3281,0.3285,0.3446,0.3449,0.3452,0.3486,0,0,0,0,0,0,0.2926,0.2944,0.2961,0.3024,0.3046,0.3143,0.3124,0.3134,0.3172,0.3173,0.3217,0.3222,0.3236,0.3305,0.3315,0.334,0.3288,0.3444,0.3448,0.3451,0.3483,0.349,0.3496,0,0,0,0,0,0.292,0.2956,0.2962,0.2977,0.3066,0.3145,0.3159,0.319,0.3174,0.3205,0.3234,0.3221,0.3335,0.3311,0.3322,0.3349,0.3442,0.3447,0.3451,0.3479,0.3489,0.3496,0,0,0,0,0,0,0.2894,0.2963,0.297,0.3025,0.3084,0.3149,0.3184,0.3197,0.3245,0.3241,0.3258,0.3268,0.3333,0.3343,0.3315,0.341,0.3382,0.339,0.34,0.3409,0.3416,0.3404,0.3292,0,0,0,0,0,0.2896,0.2937,0.3004,0.3049,0.3079,0.3129,0.3163,0.3187,0.3236,0.3254,0.3283,0.3317,0.3364,0.3386,0.3431,0.3489,0.3558,0.3511,0.3518,0.3523,0.3523,0.366,0.3679,0.3468,0.3468,0.3468,0,0,0.2897,0.2942,0.2964,0.3046,0.309,0.315,0.3146,0.3209,0.3251,0.3257,0.3319,0.3349,0.3388,0.3453,0.3481,0.3462,0.3631,0.3529,0.3534,0.353,0.3667,0.3687,0.3706,0.3471,0.3471,0.347,0,0,0.293,0.2962,0.3011,0.306,0.3136,0.3173,0.319,0.326,0.3283,0.3357,0.3365,0.3409,0.3484,0.3511,0.3535,0.3609,0.3668,0.3621,0.3642,0.3775,0.3793,0.381,0.397,0.4001,0.3617,0.3618,0.3618,0,0.2927,0.3001,0.3038,0.3099,0.3141,0.3181,0.3239,0.3282,0.336,0.339,0.3381,0.3492,0.3511,0.3587,0.3604,0.3623,0.3725,0.3603,0.3785,0.3802,0.3819,0.3979,0.4013,0.362,0.3619,0.3619,0.3619,0,0.3008,0.3057,0.3094,0.3176,0.322,0.3287,0.334,0.3387,0.3412,0.3453,0.3535,0.3571,0.3638,0.3643,0.3643,0.3759,0.3806,0.3784,0.3761,0.3843,0.4006,0.4041,0.3623,0.3622,0.3621,0.3621,0,0,0.3044,0.3131,0.3144,0.3193,0.3267,0.3326,0.3379,0.3463,0.3525,0.3569,0.3659,0.3696,0.3713,0.374,0.3748,0.3828,0.4034,0.3853,0.3859,0.4009,0.438,0.4355,0.4391,0.4058,0.4063,0.4067,0.4463,0,0.3106,0.3212,0.3231,0.3334,0.3405,0.3429,0.3481,0.3545,0.3608,0.371,0.3731,0.3823,0.3754,0.3803,0.3873,0.4002,0.412,0.3931,0.428,0.4291,0.4256,0.4427,0.4319,0.4657,0.4497,0.4503,0.4507,0,0.3214,0.3262,0.3352,0.3434,0.3463,0.3511,0.3614,0.3677,0.3785,0.3826,0.3894,0.394,0.405,0.399,0.4243,0.4139,0.4266,0.4348,0.4366,0.4346,0.4328,0.4541,0.4725,0.4572,0.456,0.4556,0.4552,0,0.3282,0.3373,0.344,0.347,0.3546,0.3579,0.3631,0.3718,0.3801,0.3928,0.4019,0.4121,0.4236,0.4369,0.4508,0.4421,0.482,0.4732,0.4836,0.4838,0.4811,0.48,0.4876,0.4946,0.4945,0.4944,0.4943,0,0.3385,0.3448,0.3478,0.3524,0.3621,0.3642,0.3765,0.382,0.3932,0.4043,0.41,0.4215,0.4342,0.4553,0.4636,0.4871,0.4947,0.4893,0.4948,0.4823,0.4809,0.4721,0.461,0.4959,0.4955,0.4952,0.495,0,0.3478,0.3491,0.359,0.3642,0.3667,0.375,0.3858,0.3933,0.403,0.4191,0.424,0.4397,0.4631,0.4786,0.5058,0.5073,0.5145,0.5329,0.5181,0.5207,0.5058,0.4953,0.4959,0.4816,0.5506,0.5508,0.5509,0,0.3536,0.3592,0.3679,0.3721,0.3746,0.3849,0.3895,0.3985,0.4049,0.4276,0.4342,0.4621,0.4743,0.5151,0.5272,0.5498,0.5278,0.5511,0.5272,0.5082,0.5009,0.4766,0.4624,0.5298,0.5298,0.5298,0.5298,0,0.3624,0.3651,0.3699,0.3777,0.3833,0.3919,0.3986,0.4052,0.4142,0.4261,0.4403,0.4535,0.4919,0.5076,0.5388,0.5478,0.5229,0.5508,0.5367,0.4904,0.4595,0.4473,0.502,0.5296,0.5296,0.5296,0.5296,0.5296,0.366,0.3703,0.3725,0.381,0.3864,0.389,0.3913,0.3964,0.4042,0.4146,0.4347,0.4501,0.4861,0.5242,0.5294,0.5335,0.5229,0.5228,0.5153,0.495,0.4669,0.5208,0.5475,0.5476,0.5477,0.5478,0.5479,0,0.3644,0.3662,0.3739,0.3771,0.3779,0.3831,0.3871,0.3837,0.3837,0.4035,0.4142,0.4482,0.4697,0.4931,0.5147,0.5025,0.4769,0.4903,0.453,0.443,0.5016,0.4854,0.4927,0.4927,0.4927,0.4928,0.4928,0.4928,0.3615,0.3627,0.3654,0.3629,0.3649,0.3583,0.357,0.3551,0.363,0.3748,0.3917,0.4142,0.4508,0.484,0.4811,0.4701,0.4313,0.4207,0.4104,0.4505,0.4526,0.4547,0.4368,0.4338,0.4337,0.3386,0.3379,0.3373]},{"header":{"parameterUnit":"m.s-1","parameterCategory":2,"la1":30.2991,"la2":30.254,"lo1":-89.0895,"lo2":-89.0444,"dx":0.0017,"dy":0.0017,"nx":28,"ny":28,"refTime":"2022-12-09T15:00:00:Z","depth":"0","parameterNumber":3,"parameterNumberName":"V-component_of_CURRENTS"},"data":[0,0,0,0,0,0,0,0,0,0,0,0,0,0,0,0,0,0,0,0,0,0,0,0,0,0,0,0,0,0,0,0,0,0,0,0,0,0,0,0,0,0,0,0,0,0,0,0,0,0,0,0,0,0,0,0,0,0,-0.0048,-0.0049,0,-0.0094,-0.0095,-0.0095,-0.0121,-0.0121,-0.0121,-0.0121,-0.016,-0.0161,-0.0162,0,0,0,0,0,0,0,0,0,0,0,0,0,0.0024,0.0022,-0.0048,-0.0049,-0.0049,-0.0094,-0.0095,-0.0095,-0.0121,-0.0121,-0.0121,-0.0121,-0.016,-0.0161,-0.0162,0,0,0,0,0,0,0,0,0,0,0,0,0,-0.0012,0.0022,-0.0048,-0.0068,-0.0071,-0.0094,-0.0095,-0.0095,-0.0121,-0.0121,-0.0121,-0.0122,-0.016,-0.0161,-0.0162,-0.0164,0,0,-0.0166,-0.0166,0,0,0,0,0,0,0,0,-0.001,-0.0015,-0.0065,-0.0067,-0.007,-0.0103,-0.0084,-0.0118,-0.0121,-0.01,-0.0121,-0.0122,-0.0141,-0.0144,-0.015,-0.0166,-0.0167,-0.0166,-0.0167,-0.0167,-0.0168,0,0,0,0,0,0,0,-0.0008,-0.0013,-0.0065,-0.0065,-0.0069,-0.0074,-0.0079,-0.009,-0.0117,-0.0102,-0.0104,-0.0112,-0.0142,-0.0149,-0.0151,-0.0168,-0.0166,-0.0167,-0.0168,-0.0168,-0.0208,-0.0208,0,0,0,0,0,0,-0.0005,-0.0011,-0.0063,-0.0066,-0.0042,-0.0075,-0.0081,-0.0091,-0.0117,-0.0122,-0.0111,-0.0113,-0.0146,-0.015,-0.0153,-0.0163,-0.0167,-0.0169,-0.0169,-0.0208,-0.0208,-0.0208,0,0,0,0,0,0,-0.0003,-0.0009,-0.0062,-0.004,-0.0048,-0.0076,-0.0087,-0.0092,-0.0103,-0.0125,-0.0129,-0.0118,-0.0147,-0.0151,-0.0161,-0.0164,-0.0169,-0.017,-0.0207,-0.0208,-0.0208,-0.0179,0,0,0,0,0,0,-0.0001,-0.0008,-0.001,-0.004,-0.0049,-0.0069,-0.0087,-0.0093,-0.0107,-0.0109,-0.0132,-0.0135,-0.0147,-0.0159,-0.0163,-0.0166,-0.0171,-0.0207,-0.0208,-0.0208,-0.0179,-0.0178,-0.0177,0,0,0,0,0,0.0002,0.0011,-0.001,-0.0016,-0.0052,-0.0069,-0.0073,-0.0093,-0.0107,-0.0105,-0.0123,-0.0135,-0.0166,-0.016,-0.0164,-0.0168,-0.0207,-0.0208,-0.0208,-0.018,-0.0178,-0.0177,0,0,0,0,0,0,0.0049,0.0008,-0.0015,-0.0018,-0.0044,-0.0074,-0.0068,-0.0093,-0.0107,-0.0106,-0.0133,-0.0138,-0.0148,-0.0163,-0.0157,-0.0183,-0.0191,-0.0192,-0.0168,-0.0166,-0.0165,-0.0134,-0.0172,0,0,0,0,0,0.0055,0.0049,0.0005,0.0005,-0.0006,-0.0041,-0.005,-0.0068,-0.0088,-0.0095,-0.0115,-0.0136,-0.0154,-0.0163,-0.0176,-0.0188,-0.0151,-0.0196,-0.0194,-0.0193,-0.0172,-0.0114,-0.0104,-0.0211,-0.0211,-0.0211,0,0,0.0073,0.0052,0.0048,0.0015,-0.0003,-0.0013,-0.0046,-0.0053,-0.0065,-0.0096,-0.0106,-0.0127,-0.0155,-0.0166,-0.0174,-0.018,-0.0144,-0.0194,-0.0193,-0.0172,-0.0113,-0.0102,-0.0093,-0.0211,-0.0211,-0.0211,0,0,0.0116,0.0088,0.0096,0.0073,0.0043,0.0019,0.0014,-0.0022,-0.0039,-0.0056,-0.0083,-0.0104,-0.0131,-0.0152,-0.0168,-0.0169,-0.0137,-0.0181,-0.0152,-0.0096,-0.0086,-0.0076,-0.0008,0.0008,-0.0184,-0.0184,-0.0184,0,0.0142,0.0138,0.0098,0.0095,0.0085,0.0033,0.0037,0.0009,-0.0027,-0.003,-0.0051,-0.0082,-0.0123,-0.013,-0.0144,-0.0164,-0.0113,-0.0154,-0.009,-0.0081,-0.0071,-0.0003,0.0014,-0.0183,-0.0183,-0.0183,-0.0183,0,0.0183,0.0174,0.0182,0.0155,0.0137,0.0139,0.0086,0.007,0.004,0.0016,0.0007,-0.0038,-0.0043,-0.0084,-0.0121,-0.009,-0.0067,-0.0089,-0.0085,-0.0058,0.0011,0.0028,-0.0181,-0.0181,-0.0182,-0.0182,0,0,0.0279,0.022,0.0228,0.0227,0.017,0.0175,0.0142,0.012,0.0149,0.0083,0.0136,0.0035,0.0031,0.0013,-0.0032,-0.0021,0.0059,-0.0028,-0.0025,0.0058,0.0217,0.0186,0.0202,0.0064,0.0067,0.0069,0.0243,0,0.0333,0.0342,0.029,0.0311,0.0318,0.025,0.0243,0.0212,0.0197,0.0239,0.0168,0.0209,0.0063,0.0102,0.0073,0.0097,0.0105,0.0016,0.0163,0.0168,0.0152,0.022,0.0163,0.0309,0.0259,0.0262,0.0264,0,0.0422,0.0406,0.0424,0.0408,0.0408,0.0415,0.0432,0.0419,0.042,0.042,0.041,0.0397,0.0393,0.0294,0.0303,0.0267,0.0238,0.0224,0.0231,0.0209,0.0169,0.027,0.0342,0.0015,0.0291,0.0288,0.0287,0,0.056,0.0529,0.055,0.0538,0.0493,0.0511,0.0508,0.0497,0.0544,0.0588,0.0682,0.0622,0.0709,0.0623,0.0547,0.0463,0.0603,0.0491,0.0425,0.0424,0.0406,0.0398,0.0194,0.0504,0.0504,0.0504,0.0503,0,0.0672,0.0698,0.0627,0.0648,0.0717,0.0645,0.0752,0.0734,0.0794,0.0918,0.0823,0.0958,0.0807,0.0846,0.0687,0.0645,0.0718,0.0466,0.0475,0.0412,0.0403,0.014,-0.0011,0.051,0.0509,0.0507,0.0506,0,0.0832,0.0776,0.0816,0.078,0.0792,0.0858,0.0926,0.1006,0.1042,0.1227,0.1276,0.1301,0.135,0.1188,0.1134,0.09,0.0658,0.077,0.071,0.0704,0.0248,0.0104,0.0027,-0.0099,0.0709,0.071,0.071,0,0.091,0.0939,0.0944,0.0989,0.0987,0.1066,0.113,0.1147,0.1251,0.1447,0.1573,0.1687,0.1775,0.1667,0.1322,0.1087,0.0777,0.082,0.059,0.0242,0.009,-0.0017,-0.0128,0.0594,0.0593,0.0593,0.0592,0,0.1043,0.1046,0.106,0.115,0.1231,0.1329,0.1434,0.1554,0.1621,0.1793,0.2027,0.2133,0.204,0.1815,0.1469,0.1212,0.0566,0.0797,0.0464,0.001,-0.0138,-0.0261,0.0462,0.0587,0.0588,0.0588,0.0588,0.0589,0.1138,0.1186,0.1203,0.1302,0.1402,0.1553,0.1664,0.1797,0.1997,0.2246,0.2344,0.2547,0.2168,0.1696,0.1325,0.0526,0.0569,0.0207,0.0082,0.0021,-0.0187,0.0523,0.0622,0.0622,0.0623,0.0623,0.0624,0,0.1212,0.125,0.1345,0.1449,0.1583,0.1618,0.1822,0.1942,0.218,0.2468,0.267,0.2646,0.2081,0.1479,0.049,-0.0099,-0.0347,-0.0436,-0.0654,-0.072,-0.0063,-0.0168,-0.0269,-0.0269,-0.0269,-0.0268,-0.0268,-0.0268,0.1246,0.1318,0.1359,0.1563,0.1662,0.184,0.1962,0.2164,0.2381,0.2733,0.2927,0.3058,0.2584,0.0788,-0.0527,-0.0842,-0.1262,-0.1306,-0.1477,-0.1139,-0.1092,-0.1048,-0.119,-0.1503,-0.1505,-0.2127,-0.2134,-0.2139]}],[{"header":{"parameterUnit":"m.s-1","parameterCategory":2,"la1":30.2991,"la2":30.254,"lo1":-89.0895,"lo2":-89.0444,"dx":0.0017,"dy":0.0017,"nx":28,"ny":28,"refTime":"2022-12-09T15:00:00:Z","depth":"2","parameterNumber":2,"parameterNumberName":"U-component_of_CURRENTS"},"data":[0,0,0,0,0,0,0,0,0,0,0,0,0,0,0,0,0,0,0,0,0,0,0,0,0,0,0,0,0,0,0,0,0,0,0,0,0,0,0,0,0,0,0,0,0,0,0,0,0,0,0,0,0,0,0,0,0,0,0.2172,0.2171,0,0.219,0.2191,0.2192,0.2246,0.2245,0.2245,0.2245,0.2223,0.2222,0.2222,0,0,0,0,0,0,0,0,0,0,0,0,0,0.2153,0.2154,0.2172,0.2171,0.217,0.219,0.2191,0.2193,0.2246,0.2245,0.2245,0.2245,0.2223,0.2222,0.2222,0,0,0,0,0,0,0,0,0,0,0,0,0,0.2178,0.2155,0.2172,0.2189,0.219,0.2189,0.2191,0.2193,0.2246,0.2245,0.2245,0.2245,0.2223,0.2222,0.2221,0.2218,0,0,0.2219,0.2219,0,0,0,0,0,0,0,0,0.2176,0.218,0.2188,0.2188,0.2188,0.2204,0.2175,0.2195,0.2246,0.2238,0.2245,0.2245,0.2204,0.2205,0.2228,0.2217,0.2216,0.2219,0.2218,0.2218,0.2218,0,0,0,0,0,0,0,0.2175,0.2179,0.2193,0.2186,0.2187,0.2184,0.2189,0.218,0.2231,0.2239,0.224,0.2221,0.2206,0.2229,0.2227,0.2215,0.2219,0.2218,0.2218,0.2217,0.2277,0.2278,0,0,0,0,0,0,0.2148,0.2178,0.2192,0.2192,0.2167,0.2183,0.219,0.221,0.2232,0.2232,0.222,0.2223,0.223,0.2228,0.2226,0.2293,0.2218,0.2217,0.2217,0.2274,0.2277,0.2279,0,0,0,0,0,0,0.2148,0.2151,0.2191,0.2172,0.2175,0.2183,0.2205,0.221,0.2239,0.2216,0.2218,0.2243,0.223,0.2227,0.2256,0.229,0.2217,0.2216,0.2272,0.2275,0.2278,0.2381,0,0,0,0,0,0,0.2148,0.2152,0.2163,0.2172,0.2175,0.2194,0.2204,0.221,0.222,0.2224,0.2235,0.2233,0.223,0.2258,0.2255,0.2287,0.2215,0.2269,0.2273,0.2277,0.2375,0.2387,0.2398,0,0,0,0,0,0.2148,0.2151,0.2165,0.2165,0.219,0.2193,0.2197,0.2209,0.2221,0.2237,0.2267,0.2233,0.228,0.2259,0.2256,0.2288,0.2267,0.2272,0.2277,0.237,0.2385,0.2397,0,0,0,0,0,0,0.2136,0.2156,0.2171,0.2179,0.2187,0.2197,0.2208,0.2213,0.2253,0.2267,0.226,0.2261,0.23,0.2279,0.2256,0.2318,0.2267,0.2271,0.2339,0.2353,0.2364,0.2366,0.2215,0,0,0,0,0,0.2139,0.2166,0.2169,0.218,0.219,0.2207,0.221,0.222,0.2241,0.226,0.228,0.2298,0.2316,0.2322,0.2335,0.2361,0.2386,0.238,0.2391,0.2401,0.2402,0.2472,0.249,0.2295,0.2295,0.2294,0,0,0.2134,0.2148,0.2162,0.2181,0.2203,0.2217,0.2215,0.2229,0.2263,0.2247,0.2325,0.2337,0.2333,0.2383,0.2396,0.2368,0.2482,0.2407,0.2415,0.2411,0.2478,0.2498,0.2514,0.2298,0.2297,0.2297,0,0,0.2138,0.2163,0.2191,0.2202,0.2219,0.2228,0.223,0.2264,0.2311,0.236,0.2376,0.2419,0.2436,0.2466,0.2471,0.2547,0.2542,0.2539,0.2596,0.2664,0.2681,0.2695,0.2808,0.2831,0.2542,0.2543,0.2543,0,0.2132,0.2174,0.2193,0.2217,0.2227,0.2234,0.2258,0.2299,0.2344,0.2391,0.2393,0.2474,0.2481,0.2538,0.2581,0.2573,0.2621,0.2544,0.268,0.2695,0.2708,0.2819,0.2844,0.2548,0.2547,0.2547,0.2546,0,0.2154,0.2191,0.2208,0.2256,0.2265,0.2287,0.2322,0.238,0.2424,0.2455,0.2543,0.2578,0.2624,0.2636,0.2634,0.2728,0.274,0.2691,0.2646,0.2734,0.2846,0.287,0.2556,0.2554,0.2552,0.2551,0,0,0.2135,0.2215,0.2223,0.2265,0.2293,0.2307,0.2379,0.2443,0.2506,0.2563,0.2655,0.2709,0.2731,0.2741,0.2753,0.281,0.2979,0.2798,0.2799,0.2913,0.3175,0.3073,0.309,0.2952,0.2955,0.2958,0.3236,0,0.2158,0.2225,0.2251,0.2309,0.2345,0.2386,0.2452,0.2507,0.257,0.2666,0.2717,0.279,0.2768,0.2812,0.2871,0.2974,0.3037,0.2911,0.3068,0.3074,0.2974,0.3111,0.2851,0.3064,0.3259,0.3263,0.3266,0,0.2167,0.2216,0.2282,0.2376,0.2399,0.2423,0.2532,0.2595,0.2704,0.2761,0.2827,0.2868,0.3008,0.2944,0.3159,0.3085,0.3133,0.318,0.3191,0.3066,0.3014,0.2996,0.31,0.3306,0.3303,0.33,0.3297,0,0.2146,0.2239,0.2302,0.2324,0.2414,0.247,0.2526,0.2619,0.2705,0.2823,0.2896,0.3017,0.3121,0.3212,0.3328,0.3272,0.3537,0.3473,0.3415,0.3411,0.3202,0.3171,0.3563,0.3563,0.3562,0.3561,0.3561,0,0.2149,0.22,0.2303,0.2327,0.2407,0.2475,0.2566,0.2643,0.277,0.2862,0.2945,0.3048,0.3186,0.3339,0.3406,0.3525,0.3615,0.3464,0.3475,0.3235,0.3206,0.3392,0.3369,0.3572,0.357,0.3568,0.3566,0,0.2102,0.218,0.2245,0.2355,0.2391,0.2443,0.2574,0.2644,0.2778,0.2912,0.2965,0.3149,0.3339,0.3455,0.3639,0.3633,0.3742,0.3716,0.3448,0.3419,0.3564,0.3542,0.3751,0.375,0.3749,0.3748,0.3747,0,0.2079,0.211,0.2227,0.2262,0.2309,0.2399,0.2459,0.2611,0.2693,0.2962,0.3032,0.3248,0.3336,0.3599,0.3622,0.3733,0.3737,0.3528,0.3332,0.3593,0.3584,0.3564,0.3545,0.3148,0.3143,0.3138,0.3134,0,0.2007,0.2057,0.2108,0.2186,0.225,0.2327,0.2441,0.2511,0.2711,0.2858,0.3078,0.3185,0.3371,0.3353,0.3434,0.3448,0.3502,0.3434,0.3818,0.31,0.3034,0.3021,0.3021,0.3093,0.3097,0.31,0.3103,0.3104,0.1932,0.1951,0.2025,0.2095,0.2173,0.2244,0.2274,0.2417,0.2559,0.2717,0.2921,0.2992,0.3088,0.306,0.3052,0.3068,0.3269,0.3158,0.3169,0.3185,0.3024,0.2955,0.2975,0.2979,0.2981,0.2984,0.2986,0,0.1829,0.1879,0.1931,0.2016,0.2054,0.2145,0.225,0.2256,0.2375,0.2526,0.2643,0.2483,0.2497,0.2605,0.2567,0.2622,0.2563,0.2533,0.2431,0.2476,0.2515,0.2314,0.2081,0.2077,0.2074,0.2071,0,0,0.1774,0.179,0.1833,0.1872,0.194,0.1959,0.1993,0.2027,0.2114,0.2093,0.2122,0.2281,0.2503,0.2213,0.2237,0.2153,0.2279,0.208,0.2815,0.2737,0.2771,0.29,0.2645,0,0,0,0,0]},{"header":{"parameterUnit":"m.s-1","parameterCategory":2,"la1":30.2991,"la2":30.254,"lo1":-89.0895,"lo2":-89.0444,"dx":0.0017,"dy":0.0017,"nx":28,"ny":28,"refTime":"2022-12-09T15:00:00:Z","depth":"2","parameterNumber":3,"parameterNumberName":"V-component_of_CURRENTS"},"data":[0,0,0,0,0,0,0,0,0,0,0,0,0,0,0,0,0,0,0,0,0,0,0,0,0,0,0,0,0,0,0,0,0,0,0,0,0,0,0,0,0,0,0,0,0,0,0,0,0,0,0,0,0,0,0,0,0,0,-0.0369,-0.0369,0,-0.0452,-0.0454,-0.0457,-0.059,-0.0591,-0.0592,-0.0592,-0.067,-0.0672,-0.0673,0,0,0,0,0,0,0,0,0,0,0,0,0,-0.0365,-0.0365,-0.0369,-0.0369,-0.0368,-0.0451,-0.0454,-0.0457,-0.059,-0.0591,-0.0592,-0.0593,-0.067,-0.0672,-0.0673,0,0,0,0,0,0,0,0,0,0,0,0,0,-0.0416,-0.0366,-0.037,-0.0431,-0.0436,-0.0451,-0.0454,-0.0458,-0.059,-0.0591,-0.0592,-0.0593,-0.0669,-0.0671,-0.0673,-0.0663,0,0,-0.068,-0.0681,0,0,0,0,0,0,0,0,-0.0413,-0.0419,-0.0423,-0.0427,-0.0432,-0.0496,-0.048,-0.052,-0.059,-0.0551,-0.0592,-0.0594,-0.0599,-0.0607,-0.0646,-0.0667,-0.067,-0.068,-0.0681,-0.0682,-0.0683,0,0,0,0,0,0,0,-0.0409,-0.0416,-0.0421,-0.0421,-0.0427,-0.0466,-0.0476,-0.049,-0.0581,-0.0554,-0.056,-0.0539,-0.0604,-0.0644,-0.0648,-0.0671,-0.068,-0.0682,-0.0683,-0.0684,-0.073,-0.073,0,0,0,0,0,0,-0.0359,-0.0412,-0.0418,-0.0421,-0.0404,-0.0463,-0.0476,-0.0489,-0.0582,-0.0591,-0.0538,-0.0545,-0.064,-0.0646,-0.0651,-0.0668,-0.0682,-0.0684,-0.0685,-0.073,-0.073,-0.073,0,0,0,0,0,0,-0.0359,-0.036,-0.0414,-0.0402,-0.0409,-0.046,-0.0475,-0.049,-0.0531,-0.0566,-0.058,-0.0561,-0.0641,-0.0648,-0.0681,-0.0671,-0.0685,-0.0687,-0.073,-0.073,-0.073,-0.0685,0,0,0,0,0,0,-0.036,-0.0361,-0.0361,-0.0399,-0.0407,-0.0409,-0.0473,-0.049,-0.0507,-0.0518,-0.0589,-0.0599,-0.0642,-0.0678,-0.0683,-0.0674,-0.0688,-0.073,-0.073,-0.073,-0.0687,-0.0684,-0.0681,0,0,0,0,0,-0.036,-0.0339,-0.0362,-0.0361,-0.0405,-0.0405,-0.0416,-0.0467,-0.0506,-0.0515,-0.0581,-0.0597,-0.0681,-0.0679,-0.0686,-0.0677,-0.073,-0.073,-0.073,-0.0688,-0.0684,-0.0681,0,0,0,0,0,0,-0.0327,-0.035,-0.0376,-0.0363,-0.0375,-0.0421,-0.0425,-0.0457,-0.0521,-0.0541,-0.0599,-0.0612,-0.0639,-0.066,-0.0656,-0.0691,-0.0706,-0.0707,-0.0672,-0.0669,-0.0666,-0.0645,-0.069,0,0,0,0,0,-0.0316,-0.0323,-0.0338,-0.0329,-0.0335,-0.0384,-0.0392,-0.0424,-0.0468,-0.0501,-0.0554,-0.0606,-0.0643,-0.0657,-0.0696,-0.0704,-0.0713,-0.0702,-0.07,-0.0697,-0.0684,-0.0708,-0.0706,-0.073,-0.073,-0.073,0,0,-0.0298,-0.0308,-0.0313,-0.0323,-0.0353,-0.0343,-0.0399,-0.0404,-0.0417,-0.0492,-0.0548,-0.0598,-0.0645,-0.0675,-0.0686,-0.069,-0.0691,-0.0697,-0.0694,-0.0683,-0.0708,-0.0705,-0.0703,-0.073,-0.073,-0.073,0,0,-0.0258,-0.0282,-0.0278,-0.0279,-0.0288,-0.0311,-0.0302,-0.0352,-0.0405,-0.0439,-0.0509,-0.0554,-0.0605,-0.0651,-0.0673,-0.0669,-0.068,-0.0674,-0.0637,-0.066,-0.0658,-0.0656,-0.0645,-0.0643,-0.0668,-0.0668,-0.0667,0,-0.0237,-0.0238,-0.027,-0.0255,-0.0247,-0.0287,-0.0271,-0.0314,-0.0373,-0.0408,-0.0444,-0.0548,-0.0593,-0.0627,-0.064,-0.0661,-0.0664,-0.0646,-0.0655,-0.0654,-0.0653,-0.0642,-0.064,-0.0665,-0.0666,-0.0666,-0.0666,0,-0.0191,-0.0192,-0.0182,-0.019,-0.0183,-0.0172,-0.0205,-0.024,-0.0297,-0.0337,-0.0402,-0.0486,-0.0546,-0.0565,-0.0604,-0.0619,-0.0619,-0.0652,-0.066,-0.0648,-0.0637,-0.0636,-0.0662,-0.0663,-0.0664,-0.0664,0,0,-0.0162,-0.0157,-0.0157,-0.0159,-0.0152,-0.0146,-0.016,-0.0189,-0.0214,-0.0283,-0.0325,-0.0406,-0.046,-0.049,-0.0551,-0.0571,-0.0575,-0.0603,-0.0605,-0.0583,-0.0596,-0.0628,-0.063,-0.061,-0.061,-0.061,-0.0583,0,-0.0131,-0.0096,-0.01,-0.0071,-0.0062,-0.009,-0.0098,-0.0125,-0.018,-0.0231,-0.0314,-0.0369,-0.0427,-0.0468,-0.0499,-0.0559,-0.0572,-0.0577,-0.0618,-0.0618,-0.0643,-0.0631,-0.0605,-0.0583,-0.0582,-0.0582,-0.0582,0,-0.0098,-0.008,-0.0047,-0.0045,-0.0045,-0.0028,-0.0058,-0.007,-0.0127,-0.0177,-0.0233,-0.0298,-0.0348,-0.0411,-0.0477,-0.0476,-0.0529,-0.0568,-0.0569,-0.0614,-0.0649,-0.06,-0.0581,-0.058,-0.058,-0.058,-0.0581,0,-0.0083,-0.0055,-0.0034,-0.0023,-0.0009,-0.0021,-0.0025,-0.0059,-0.007,-0.0141,-0.0141,-0.023,-0.0267,-0.0344,-0.0428,-0.0455,-0.0484,-0.0539,-0.0608,-0.0609,-0.0602,-0.0604,-0.0582,-0.0582,-0.0582,-0.0583,-0.0583,0,-0.0058,-0.0047,-0.0031,-0.0014,0.0004,-0.0002,0.0001,-0.0026,-0.0042,-0.0006,-0.0112,-0.0097,-0.0252,-0.0291,-0.0386,-0.0474,-0.0452,-0.0589,-0.061,-0.0585,-0.0586,-0.0604,-0.0607,-0.0581,-0.0582,-0.0582,-0.0582,0,-0.0056,-0.0044,-0.0015,0.0005,0.0012,0.0021,0.0046,0.0058,0.0036,0.0082,0.0075,0.0012,-0.0045,-0.0177,-0.0294,-0.0408,-0.05,-0.0538,-0.0483,-0.05,-0.0617,-0.0618,-0.0622,-0.0623,-0.0624,-0.0624,-0.0625,0,-0.0055,-0.0037,0.0009,0.004,0.0047,0.0066,0.0096,0.0088,0.0132,0.0181,0.0227,0.0168,0.0182,-0.001,-0.0256,-0.043,-0.0468,-0.0537,-0.0614,-0.0604,-0.0623,-0.0623,-0.0623,-0.0568,-0.0568,-0.0568,-0.0569,0,-0.0036,-0.002,0.0019,0.0089,0.0127,0.018,0.0229,0.0295,0.0335,0.0428,0.0566,0.0585,0.0333,0.0136,-0.0194,-0.0329,-0.052,-0.0549,-0.0537,-0.058,-0.0557,-0.0575,-0.0576,-0.0569,-0.0569,-0.0569,-0.0569,-0.0569,-0.0011,0.0024,0.0091,0.016,0.0218,0.0328,0.0425,0.0536,0.0696,0.0871,0.0828,0.0878,0.053,0.0124,-0.016,-0.0507,-0.0521,-0.0622,-0.062,-0.0619,-0.0635,-0.0617,-0.0641,-0.0641,-0.0641,-0.0641,-0.0642,0,0.0046,0.0094,0.0164,0.0281,0.0393,0.0387,0.0553,0.0716,0.0998,0.1071,0.1199,0.0932,0.0644,0.0255,-0.0263,-0.0568,-0.0591,-0.065,-0.0611,-0.0609,-0.0608,-0.0623,-0.0626,-0.0626,-0.0626,-0.0627,0,0,0.0086,0.018,0.023,0.0439,0.052,0.0709,0.0837,0.1094,0.1222,0.138,0.1363,0.1245,0.0761,0.0407,-0.0035,-0.0321,-0.0382,-0.0374,-0.0359,-0.026,-0.0254,-0.0573,-0.0592,0,0,0,0,0]}],[{"header":{"parameterUnit":"m.s-1","parameterCategory":2,"la1":30.2991,"la2":30.254,"lo1":-89.0895,"lo2":-89.0444,"dx":0.0017,"dy":0.0017,"nx":28,"ny":28,"refTime":"2022-12-09T15:00:00:Z","depth":"4","parameterNumber":2,"parameterNumberName":"U-component_of_CURRENTS"},"data":[0,0,0,0,0,0,0,0,0,0,0,0,0,0,0,0,0,0,0,0,0,0,0,0,0,0,0,0,0,0,0,0,0,0,0,0,0,0,0,0,0,0,0,0,0,0,0,0,0,0,0,0,0,0,0,0,0,0,0.099,0.0991,0,0.1048,0.1049,0.1049,0.1097,0.1098,0.1098,0.1099,0.1159,0.116,0.1161,0,0,0,0,0,0,0,0,0,0,0,0,0,0.0911,0.0912,0.099,0.0991,0.0991,0.1048,0.1049,0.1049,0.1097,0.1098,0.1098,0.1099,0.1159,0.116,0.1161,0,0,0,0,0,0,0,0,0,0,0,0,0,0.0954,0.0913,0.099,0.1023,0.1026,0.1048,0.1049,0.105,0.1097,0.1098,0.1099,0.1099,0.1158,0.116,0.1161,0.1153,0,0,0.1166,0.1167,0,0,0,0,0,0,0,0,0.0951,0.0957,0.1017,0.1021,0.1025,0.1067,0.1043,0.1085,0.1097,0.1069,0.1099,0.11,0.1128,0.1132,0.114,0.1156,0.1158,0.1166,0.1167,0.1168,0.1168,0,0,0,0,0,0,0,0.0948,0.0954,0.1012,0.1018,0.1023,0.1032,0.1039,0.1051,0.1092,0.1071,0.1075,0.1083,0.1131,0.1138,0.1142,0.1159,0.1166,0.1167,0.1168,0.1169,0.1314,0.1317,0,0,0,0,0,0,0.0943,0.0952,0.101,0.1014,0.0991,0.1033,0.1041,0.1052,0.1092,0.1099,0.1082,0.1085,0.1135,0.114,0.1144,0.1238,0.1168,0.1169,0.117,0.1312,0.1315,0.1318,0,0,0,0,0,0,0.0941,0.0948,0.1008,0.0985,0.0993,0.1033,0.1045,0.1052,0.1094,0.1101,0.1108,0.1121,0.1136,0.1142,0.1191,0.1237,0.117,0.1171,0.1308,0.1313,0.1317,0.1361,0,0,0,0,0,0,0.0939,0.0947,0.0967,0.0984,0.0994,0.1044,0.1045,0.1053,0.1096,0.1101,0.1135,0.114,0.1137,0.1189,0.1193,0.1238,0.1172,0.1304,0.131,0.1315,0.1356,0.1367,0.1376,0,0,0,0,0,0.0936,0.0955,0.0967,0.0975,0.1016,0.1045,0.1052,0.1082,0.1097,0.1122,0.1151,0.114,0.1228,0.1192,0.1196,0.1243,0.1302,0.1308,0.1315,0.1352,0.1365,0.1376,0,0,0,0,0,0,0.0936,0.0962,0.0976,0.1005,0.1035,0.1054,0.1083,0.1101,0.1142,0.1158,0.1162,0.1169,0.1227,0.1237,0.1198,0.1307,0.1269,0.1277,0.1296,0.1308,0.1318,0.1313,0.1174,0,0,0,0,0,0.0943,0.0964,0.0991,0.1018,0.1037,0.1066,0.1088,0.111,0.1141,0.1162,0.1187,0.1224,0.1252,0.1282,0.1302,0.1358,0.1366,0.1399,0.1409,0.1417,0.142,0.1469,0.1483,0.134,0.134,0.134,0,0,0.0947,0.0968,0.098,0.102,0.1047,0.1077,0.1083,0.1128,0.1159,0.116,0.1224,0.1248,0.1272,0.133,0.1361,0.135,0.1468,0.1425,0.1431,0.143,0.1477,0.1491,0.1503,0.1344,0.1344,0.1343,0,0,0.0958,0.0992,0.1011,0.1039,0.1087,0.1108,0.1129,0.1173,0.1205,0.1257,0.1272,0.133,0.1374,0.1409,0.1426,0.1508,0.1505,0.153,0.1587,0.1635,0.1646,0.1656,0.1697,0.171,0.155,0.155,0.155,0,0.0962,0.0994,0.1023,0.1051,0.108,0.1126,0.1158,0.1192,0.125,0.1285,0.1287,0.1386,0.1408,0.1482,0.152,0.1527,0.1552,0.1531,0.1645,0.1654,0.1664,0.1703,0.1717,0.1553,0.1553,0.1553,0.1552,0,0.0981,0.1017,0.1036,0.1084,0.1121,0.1161,0.1208,0.1262,0.1306,0.1341,0.1427,0.1464,0.1531,0.1556,0.156,0.1656,0.1652,0.1633,0.1603,0.168,0.1718,0.1731,0.1557,0.1556,0.1556,0.1555,0,0,0.0954,0.103,0.1039,0.1069,0.1145,0.1173,0.1242,0.1313,0.1367,0.1433,0.1504,0.1574,0.1616,0.1641,0.1673,0.1725,0.1817,0.1721,0.1723,0.1742,0.193,0.1835,0.184,0.182,0.1823,0.1825,0.1932,0,0.0961,0.1007,0.1055,0.1114,0.1143,0.1216,0.1268,0.1342,0.1415,0.1497,0.1563,0.1638,0.1642,0.1695,0.1749,0.1799,0.1854,0.179,0.187,0.1872,0.1762,0.1853,0.1832,0.1942,0.1945,0.1947,0.1949,0,0.0958,0.0993,0.1043,0.1125,0.1148,0.1199,0.131,0.1368,0.149,0.1554,0.1655,0.1702,0.1815,0.1792,0.1919,0.1882,0.1917,0.1941,0.1946,0.1847,0.1802,0.1851,0.1973,0.1971,0.1969,0.1968,0.1966,0,0.0902,0.0986,0.1026,0.1054,0.115,0.1205,0.1275,0.1392,0.1459,0.1614,0.1689,0.1799,0.1889,0.194,0.201,0.1979,0.2126,0.2083,0.2026,0.202,0.2048,0.2036,0.216,0.216,0.216,0.216,0.216,0,0.0871,0.0902,0.101,0.1027,0.1094,0.1181,0.1277,0.137,0.1507,0.1597,0.1726,0.1815,0.1934,0.2024,0.2049,0.2092,0.2166,0.2052,0.2048,0.2068,0.2057,0.2057,0.2044,0.2164,0.2163,0.2162,0.2161,0,0.0781,0.0852,0.0904,0.1021,0.1065,0.1117,0.1273,0.1333,0.1494,0.1622,0.1679,0.1868,0.2001,0.2088,0.2198,0.2152,0.2187,0.2178,0.2217,0.221,0.2035,0.2024,0.2118,0.2116,0.2114,0.2112,0.2111,0,0.0731,0.0745,0.0881,0.0921,0.0981,0.1081,0.1138,0.1309,0.1383,0.1633,0.1676,0.1878,0.1986,0.2076,0.2171,0.2226,0.2199,0.2197,0.209,0.2048,0.2035,0.2026,0.2017,0.2108,0.2107,0.2107,0.2106,0,0.063,0.0693,0.074,0.082,0.0897,0.0979,0.1091,0.1143,0.1341,0.1496,0.1652,0.176,0.1922,0.2022,0.2101,0.2121,0.2181,0.2175,0.2178,0.2077,0.2036,0.2023,0.2017,0.21,0.2101,0.2101,0.2102,0,0.0562,0.0574,0.0649,0.0719,0.0801,0.0866,0.0943,0.1055,0.1161,0.1438,0.1487,0.1718,0.1895,0.1971,0.2031,0.2066,0.2026,0.1938,0.1952,0.1961,0.1862,0.1784,0.1784,0,0,0,0,0,0.0502,0.0508,0.0543,0.0629,0.0701,0.0762,0.0897,0.0982,0.1181,0.1247,0.137,0.1513,0.1676,0.1796,0.1803,0.1954,0.2015,0.1953,0.1914,0.2062,0.207,0.197,0,0,0,0,0,0,0.0463,0.0484,0.0507,0.0535,0.0577,0.0653,0.0743,0.0875,0.0928,0.1143,0.124,0.1409,0.1582,0.1655,0.177,0.1804,0.1747,0.2092,0.2088,0.2058,0.2065,0.2071,0.1971,0,0,0,0,0]},{"header":{"parameterUnit":"m.s-1","parameterCategory":2,"la1":30.2991,"la2":30.254,"lo1":-89.0895,"lo2":-89.0444,"dx":0.0017,"dy":0.0017,"nx":28,"ny":28,"refTime":"2022-12-09T15:00:00:Z","depth":"4","parameterNumber":3,"parameterNumberName":"V-component_of_CURRENTS"},"data":[0,0,0,0,0,0,0,0,0,0,0,0,0,0,0,0,0,0,0,0,0,0,0,0,0,0,0,0,0,0,0,0,0,0,0,0,0,0,0,0,0,0,0,0,0,0,0,0,0,0,0,0,0,0,0,0,0,0,0.0111,0.0111,0,0.0055,0.0055,0.0054,0.0016,0.0016,0.0016,0.0015,-0.0086,-0.0089,-0.0091,0,0,0,0,0,0,0,0,0,0,0,0,0,0.0134,0.0134,0.0111,0.0111,0.011,0.0056,0.0055,0.0054,0.0016,0.0016,0.0016,0.0015,-0.0085,-0.0088,-0.0091,0,0,0,0,0,0,0,0,0,0,0,0,0,0.0105,0.0134,0.0111,0.0085,0.0083,0.0056,0.0055,0.0054,0.0016,0.0016,0.0015,0.0015,-0.0084,-0.0088,-0.0092,-0.011,0,0,-0.0104,-0.0105,0,0,0,0,0,0,0,0,0.0106,0.0104,0.009,0.0087,0.0084,0.0043,0.0025,-0.0003,0.0016,0.004,0.0015,0.0015,-0.0046,-0.0053,-0.0064,-0.0115,-0.0119,-0.0104,-0.0106,-0.0108,-0.0109,0,0,0,0,0,0,0,0.0108,0.0106,0.0088,0.0089,0.0086,0.0059,0.0055,0.002,-0.0003,0.0038,0.0035,0.0031,-0.0048,-0.006,-0.0067,-0.0121,-0.0104,-0.0107,-0.011,-0.0111,-0.0214,-0.0214,0,0,0,0,0,0,0.0121,0.0108,0.009,0.0086,0.0096,0.0059,0.0055,0.0056,-0.0001,-0.001,0.0031,0.003,-0.0054,-0.0062,-0.0071,-0.0097,-0.0108,-0.0111,-0.0114,-0.0213,-0.0214,-0.0214,0,0,0,0,0,0,0.0122,0.012,0.0092,0.0096,0.0091,0.006,0.0061,0.0055,0.0039,-0.0006,-0.0015,0.0022,-0.0054,-0.0065,-0.0105,-0.0101,-0.0113,-0.0117,-0.0213,-0.0213,-0.0214,-0.0149,0,0,0,0,0,0,0.0123,0.0121,0.0122,0.0097,0.0091,0.0078,0.0061,0.0054,0.0038,0.0035,-0.0017,-0.0026,-0.0055,-0.0099,-0.0109,-0.0106,-0.012,-0.0212,-0.0213,-0.0214,-0.015,-0.0147,-0.0144,0,0,0,0,0,0.0124,0.0129,0.0122,0.012,0.0096,0.0078,0.0073,0.0048,0.0038,0.0033,-0.0004,-0.0025,-0.0111,-0.0103,-0.0114,-0.0112,-0.0212,-0.0213,-0.0214,-0.0151,-0.0147,-0.0144,0,0,0,0,0,0,0.0133,0.0125,0.0117,0.0118,0.0101,0.0072,0.0067,0.0049,0.0017,0.0011,-0.0031,-0.0043,-0.0075,-0.0108,-0.0097,-0.0147,-0.0165,-0.0168,-0.0114,-0.0111,-0.0108,-0.0081,-0.0123,0,0,0,0,0,0.0139,0.0143,0.0125,0.0124,0.012,0.0094,0.0082,0.0065,0.0036,0.0022,-0.0013,-0.0054,-0.0088,-0.011,-0.0145,-0.0174,-0.0217,-0.0182,-0.0179,-0.0176,-0.0164,-0.0234,-0.0236,-0.0217,-0.0217,-0.0217,0,0,0.0144,0.0138,0.014,0.0127,0.0114,0.0115,0.0086,0.0072,0.0072,0.0015,-0.0001,-0.0045,-0.0094,-0.0122,-0.0139,-0.0149,-0.0207,-0.0177,-0.0174,-0.0164,-0.0236,-0.0237,-0.0239,-0.0218,-0.0218,-0.0218,0,0,0.0159,0.0151,0.0163,0.0155,0.0138,0.0124,0.0122,0.0094,0.0083,0.0057,0.002,-0.0021,-0.0075,-0.0105,-0.0128,-0.0133,-0.0187,-0.0149,-0.0113,-0.0181,-0.0183,-0.0185,-0.0246,-0.0254,-0.0149,-0.0148,-0.0148,0,0.0162,0.018,0.0161,0.0169,0.0173,0.0134,0.0149,0.013,0.009,0.0084,0.0059,-0.002,-0.0063,-0.0092,-0.0093,-0.0123,-0.0172,-0.0118,-0.0175,-0.0178,-0.0182,-0.0244,-0.0253,-0.0145,-0.0146,-0.0146,-0.0146,0,0.0186,0.0203,0.0209,0.0215,0.0212,0.0216,0.0197,0.0183,0.016,0.0137,0.0099,0.0034,-0.0012,-0.0036,-0.0064,-0.0104,-0.0135,-0.0161,-0.0178,-0.0179,-0.0245,-0.0256,-0.0141,-0.0142,-0.0143,-0.0144,0,0,0.0188,0.0224,0.0225,0.0251,0.0241,0.0244,0.0247,0.0241,0.0242,0.0188,0.0179,0.0114,0.0071,0.0042,-0.001,-0.0068,-0.0136,-0.0118,-0.0123,-0.0166,-0.0289,-0.0255,-0.0265,-0.0177,-0.0179,-0.018,-0.0327,0,0.0214,0.0262,0.0266,0.0308,0.0335,0.0316,0.0327,0.0311,0.0281,0.0256,0.0186,0.015,0.0103,0.0073,0.001,-0.0103,-0.0162,-0.0093,-0.0292,-0.0297,-0.0257,-0.0275,-0.0184,-0.0335,-0.0338,-0.034,-0.0341,0,0.0233,0.027,0.033,0.038,0.0389,0.0404,0.0417,0.042,0.0375,0.0349,0.0294,0.0228,0.0144,0.0098,-0.0084,-0.0042,-0.0151,-0.0241,-0.0249,-0.0244,-0.0283,-0.0337,-0.0362,-0.0361,-0.0359,-0.0358,-0.0356,0,0.0257,0.0312,0.0373,0.0387,0.043,0.0452,0.0466,0.0447,0.0455,0.0402,0.0381,0.0272,0.0203,0.0059,-0.0119,-0.0113,-0.0329,-0.035,-0.0419,-0.0419,-0.0434,-0.043,-0.0473,-0.0473,-0.0473,-0.0472,-0.0472,0,0.029,0.0334,0.0393,0.0426,0.0492,0.0499,0.0545,0.0539,0.0519,0.0523,0.0432,0.039,0.0186,0.0041,-0.0113,-0.0298,-0.0332,-0.0411,-0.0453,-0.0405,-0.0396,-0.0443,-0.0437,-0.0478,-0.0476,-0.0475,-0.0474,0,0.0316,0.0353,0.0425,0.0488,0.0512,0.0558,0.0608,0.0629,0.0606,0.0601,0.0583,0.0451,0.0268,0.0067,-0.0188,-0.0287,-0.047,-0.0526,-0.0456,-0.0494,-0.0517,-0.0506,-0.0616,-0.0616,-0.0616,-0.0616,-0.0616,0,0.0343,0.0386,0.0473,0.0518,0.0554,0.062,0.0664,0.0675,0.0688,0.0637,0.0628,0.0465,0.0358,0.003,-0.0181,-0.0465,-0.0495,-0.0584,-0.0542,-0.05,-0.0531,-0.0521,-0.0511,-0.0616,-0.0616,-0.0616,-0.0616,0,0.0396,0.0422,0.048,0.0566,0.0629,0.0702,0.0755,0.0768,0.0767,0.0749,0.066,0.05,0.0297,0.0045,-0.0177,-0.0378,-0.0522,-0.0585,-0.0586,-0.0547,-0.0501,-0.053,-0.052,-0.0616,-0.0616,-0.0616,-0.0616,0,0.0427,0.0469,0.0532,0.0606,0.0689,0.075,0.0781,0.079,0.0801,0.0741,0.0706,0.0502,0.0372,0.0088,-0.0118,-0.0308,-0.0347,-0.0392,-0.0404,-0.0406,-0.029,-0.0198,-0.0254,0,0,0,0,0,0.0452,0.0491,0.0564,0.0639,0.0718,0.076,0.0824,0.0839,0.0836,0.0789,0.0749,0.0569,0.0278,0.0141,-0.0043,-0.0125,-0.0388,-0.0345,-0.0447,-0.0616,-0.0616,-0.051,0,0,0,0,0,0,0.0466,0.053,0.0561,0.0649,0.0697,0.0782,0.0824,0.0826,0.0792,0.0762,0.0604,0.0537,0.0241,0.0375,-0.0046,-0.0104,-0.0188,-0.0485,-0.0488,-0.0616,-0.0616,-0.0616,-0.0507,0,0,0,0,0]}]]